Location: Copeville
(33.0796°N, 96.4155°W)
Time: 13:41:42
(UTC+00:00)

AO-109 - Visible Passes

Search period start: 27 March 2023 00:00
Search period end: 06 April 2023 00:00
Orbit: 442 x 483 km, 60.7° (Epoch: 26 March)

Date Brightness Start Highest point End Pass type
(mag) Time Alt. Az. Time Alt. Az. Time Alt. Az.
03 Apr ? 03:12:36 10° NNW 03:13:14 15° NNW 03:13:14 15° NNW visible
04 Apr ? 02:39:24 10° NNW 02:41:22 29° N 02:41:22 29° N visible
05 Apr ? 02:06:14 10° NNW 02:09:25 32° NE 02:09:30 32° NE visible
